[[{"header":{"parameterUnit":"m.s-1","parameterCategory":1,"la1":30.2991,"la2":30.254,"lo1":-89.0895,"lo2":-89.0444,"dy":0.0017,"dx":0.0017,"nx":28,"ny":28,"refTime":"2024-05-26T21:00:00:Z","depth":0,"parameterNumber":2,"parameterNumberName":"U-component_of_WINDS"},"data":[0,0,0,0,0,0,0,0,0,0,0,0,0,0,0,0,0,0,0,0,0,0,0,0,0,0,0,0,0,0,0,0,0,0,0,0,0,0,0,0,0,0,0,0,0,0,0,0,0,0,0,0,0,0,0,0,0,0,2.8521,2.8522,0,2.8617,2.8618,2.8619,2.8601,2.8599,2.8598,2.8596,2.8695,2.87,2.8704,0,0,0,0,0,0,0,0,0,0,0,0,0,2.8321,2.8324,2.8521,2.8522,2.8523,2.8617,2.8618,2.862,2.8601,2.8599,2.8597,2.8595,2.8694,2.8699,2.8704,0,0,0,0,0,0,0,0,0,0,0,0,0,2.8411,2.8326,2.8521,2.8525,2.8527,2.8617,2.8618,2.862,2.8602,2.8599,2.8597,2.8594,2.8692,2.8699,2.8705,2.8796,0,0,2.8724,2.8727,0,0,0,0,0,0,0,0,2.8406,2.8419,2.8523,2.8525,2.8527,2.8594,2.8584,2.8679,2.8603,2.8573,2.8596,2.8593,2.8664,2.8672,2.8696,2.8801,2.8805,2.8725,2.8729,2.8731,2.8733,0,0,0,0,0,0,0,2.84,2.8414,2.8559,2.8525,2.8527,2.8523,2.8533,2.8602,2.8632,2.8576,2.8575,2.8586,2.8664,2.869,2.8698,2.8807,2.8725,2.873,2.8734,2.8737,2.8989,2.8992,0,0,0,0,0,0,2.8392,2.8409,2.8556,2.8562,2.8459,2.8528,2.854,2.8575,2.8631,2.8637,2.8588,2.8585,2.8681,2.8691,2.8702,2.8811,2.8731,2.8737,2.8741,2.8986,2.899,2.8993,0,0,0,0,0,0,2.8388,2.8405,2.8552,2.8485,2.8504,2.8535,2.8575,2.8579,2.8604,2.8641,2.8646,2.8609,2.8679,2.8693,2.8772,2.8814,2.874,2.8746,2.8983,2.8987,2.8991,2.9031,0,0,0,0,0,0,2.8382,2.8404,2.8439,2.8486,2.8507,2.8621,2.8578,2.8582,2.8615,2.8612,2.8662,2.8668,2.8678,2.8763,2.8779,2.8822,2.8751,2.8979,2.8985,2.899,2.9026,2.9036,2.9045,0,0,0,0,0,2.8375,2.8447,2.8441,2.8459,2.8552,2.8623,2.8635,2.8646,2.8619,2.8654,2.8677,2.8666,2.8807,2.8771,2.8789,2.8834,2.8977,2.8983,2.8989,2.9022,2.9034,2.9044,0,0,0,0,0,0,2.8404,2.8453,2.8447,2.8536,2.8576,2.862,2.8665,2.8659,2.8707,2.8702,2.8713,2.8724,2.8805,2.8828,2.8787,2.8925,2.8888,2.8898,2.8907,2.8919,2.8928,2.892,2.8756,0,0,0,0,0,2.8421,2.8475,2.8515,2.859,2.861,2.8634,2.8666,2.867,2.8712,2.8728,2.8758,2.8798,2.8852,2.8887,2.8938,2.903,2.9039,2.907,2.9079,2.9086,2.9095,2.9143,2.9157,2.9014,2.9014,2.9014,0,0,2.8456,2.849,2.8523,2.8597,2.8628,2.8683,2.8648,2.8709,2.875,2.8738,2.8814,2.8837,2.8883,2.8968,2.9007,2.899,2.9136,2.9095,2.91,2.9105,2.9151,2.9165,2.9177,2.9018,2.9018,2.9017,0,0,2.8548,2.858,2.8645,2.8676,2.8724,2.8739,2.8755,2.88,2.8815,2.8891,2.8883,2.8932,2.9024,2.9057,2.9086,2.9189,2.918,2.9206,2.9254,2.9301,2.9312,2.9322,2.9358,2.9371,2.9214,2.9214,2.9215,0,2.8586,2.8669,2.8679,2.874,2.8772,2.8763,2.8828,2.8859,2.8921,2.8943,2.8923,2.9037,2.9068,2.916,2.9185,2.9209,2.9226,2.92,2.931,2.932,2.933,2.9363,2.9377,2.9217,2.9217,2.9217,2.9216,0,2.8712,2.877,2.8817,2.8876,2.8913,2.8977,2.8995,2.9032,2.9033,2.9051,2.9128,2.9165,2.9222,2.9245,2.9247,2.9337,2.9325,2.9307,2.927,2.9346,2.9378,2.9391,2.9221,2.922,2.9219,2.9219,0,0,2.8825,2.8888,2.8905,2.8931,2.8983,2.9027,2.909,2.9146,2.9176,2.9219,2.9271,2.9349,2.9332,2.9365,2.9371,2.9412,2.949,2.939,2.9391,2.9406,2.959,2.9601,2.9616,2.9485,2.9487,2.9489,2.9585,0,2.8921,2.903,2.904,2.9138,2.9191,2.9183,2.9237,2.9274,2.9292,2.9339,2.9359,2.9414,2.9389,2.9408,2.9449,2.9472,2.9527,2.9465,2.9532,2.9534,2.9519,2.9633,2.9646,2.9734,2.9598,2.96,2.9602,0,2.9047,2.9093,2.9196,2.9238,2.9261,2.9309,2.936,2.9406,2.9448,2.9458,2.9494,2.9493,2.9557,2.9518,2.9605,2.9563,2.9591,2.9606,2.961,2.9615,2.9571,2.964,2.9763,2.9776,2.9622,2.962,2.9619,0,2.9117,2.9204,2.9277,2.93,2.9352,2.9385,2.9409,2.9448,2.948,2.9526,2.9546,2.9599,2.9627,2.9667,2.9681,2.9652,2.9767,2.973,2.9776,2.9776,2.9799,2.9798,2.9927,2.982,2.982,2.982,2.982,0,2.9222,2.9285,2.9309,2.9353,2.9423,2.9434,2.9503,2.9524,2.9559,2.9607,2.9604,2.9649,2.9665,2.9713,2.9725,2.9794,2.9807,2.9816,2.9818,2.9816,2.9814,2.9833,2.9827,2.9823,2.9823,2.9822,2.9821,0,2.9311,2.933,2.9408,2.9451,2.9463,2.9512,2.9548,2.9591,2.9608,2.9669,2.9684,2.9711,2.9766,2.9784,2.9852,2.986,2.994,2.9938,2.9926,2.9926,2.997,2.9965,3.0115,3.0135,3.0016,3.0018,3.0018,0,2.9376,2.9424,2.9471,2.9503,2.9527,2.9579,2.9612,2.9625,2.9659,2.9709,2.9746,2.9801,2.9845,2.9935,2.996,3.0012,3.001,3.0059,3.0017,3.0013,3.0008,3.0005,3.0009,3.0066,3.0067,3.0068,3.0069,0,2.9489,2.9495,2.9543,2.9593,2.9632,2.9673,2.9712,2.9739,2.9757,2.9796,2.9852,2.9887,2.9956,3.001,3.0062,3.0086,3.008,3.0082,3.0095,3.0092,3.0083,3.0087,2.9945,3.0078,3.0077,3.0077,3.0076,3.0076,2.9567,2.9608,2.9648,2.97,2.9731,2.9767,2.9809,2.9831,2.9878,2.9935,2.994,3.0,3.004,3.0109,3.0135,3.0183,3.0169,3.0188,3.0193,3.0197,3.02,3.0076,3.0193,3.0193,3.0192,3.0192,3.0192,0,2.9677,2.9702,2.9751,2.9805,2.9846,2.9837,2.988,2.9915,2.9968,3.0005,3.0049,3.0114,3.0166,3.0196,3.0248,3.028,3.0279,3.0293,3.029,3.0295,3.021,3.0193,3.0293,3.0293,3.0293,3.0293,3.0293,3.0293,2.974,2.9809,2.982,2.9905,2.9929,2.9988,3.0013,3.0046,3.0076,3.0148,3.0191,3.021,3.0244,3.0298,3.0346,3.0353,3.0371,3.0387,3.0393,3.0312,3.0302,3.0292,3.0275,3.0392,3.0392,3.0474,3.0475,3.0475]},{"header":{"parameterUnit":"m.s-1","parameterCategory":1,"la1":30.2991,"la2":30.254,"lo1":-89.0895,"lo2":-89.0444,"dy":0.0017,"dx":0.0017,"nx":28,"ny":28,"refTime":"2024-05-26T21:00:00:Z","depth":0,"parameterNumber":3,"parameterNumberName":"V-component_of_WINDS"},"data":[0,0,0,0,0,0,0,0,0,0,0,0,0,0,0,0,0,0,0,0,0,0,0,0,0,0,0,0,0,0,0,0,0,0,0,0,0,0,0,0,0,0,0,0,0,0,0,0,0,0,0,0,0,0,0,0,0,0,1.0888,1.0888,0,1.0908,1.0909,1.0909,1.0892,1.0891,1.089,1.089,1.091,1.0912,1.0913,0,0,0,0,0,0,0,0,0,0,0,0,0,1.0832,1.0833,1.0888,1.0888,1.0888,1.0908,1.0909,1.0909,1.0892,1.0891,1.089,1.0889,1.091,1.0912,1.0913,0,0,0,0,0,0,0,0,0,0,0,0,0,1.0855,1.0834,1.0888,1.0882,1.0882,1.0908,1.0909,1.0909,1.0892,1.0891,1.089,1.0889,1.091,1.0911,1.0913,1.0946,0,0,1.0919,1.092,0,0,0,0,0,0,0,0,1.0854,1.0857,1.0883,1.0883,1.0882,1.0896,1.0897,1.0921,1.0892,1.0888,1.089,1.0888,1.0907,1.0909,1.0915,1.0947,1.0948,1.0919,1.092,1.0921,1.0921,0,0,0,0,0,0,0,1.0852,1.0856,1.0896,1.0883,1.0883,1.0878,1.088,1.0901,1.0903,1.0888,1.0887,1.089,1.0906,1.0913,1.0915,1.0948,1.0919,1.0921,1.0922,1.0922,1.1007,1.1008,0,0,0,0,0,0,1.0851,1.0855,1.0895,1.0896,1.0865,1.088,1.0882,1.0893,1.0903,1.0903,1.0891,1.0889,1.0911,1.0913,1.0916,1.0954,1.0921,1.0923,1.0924,1.1006,1.1007,1.1009,0,0,0,0,0,0,1.085,1.0855,1.0894,1.0875,1.088,1.0882,1.0894,1.0894,1.0901,1.0905,1.0905,1.0898,1.091,1.0913,1.0938,1.0955,1.0923,1.0925,1.1005,1.1006,1.1008,1.1032,0,0,0,0,0,0,1.0848,1.0855,1.0868,1.0876,1.0881,1.0917,1.0895,1.0895,1.0904,1.0902,1.0911,1.0912,1.0909,1.0936,1.094,1.0957,1.0926,1.1003,1.1005,1.1007,1.103,1.1034,1.1038,0,0,0,0,0,1.0847,1.0874,1.0868,1.0873,1.0897,1.0918,1.0921,1.0918,1.0905,1.0918,1.092,1.0911,1.0952,1.0939,1.0943,1.0961,1.1002,1.1005,1.1007,1.1028,1.1033,1.1038,0,0,0,0,0,0,1.0868,1.0875,1.0869,1.0899,1.0908,1.0915,1.0931,1.0924,1.0937,1.0934,1.0929,1.0932,1.0958,1.0962,1.0946,1.0992,1.0975,1.0979,1.0989,1.0994,1.0999,1.0997,1.0928,0,0,0,0,0,1.0876,1.0892,1.0897,1.0924,1.0929,1.0929,1.0938,1.0935,1.0944,1.0947,1.0952,1.096,1.0975,1.0985,1.0999,1.103,1.1031,1.1044,1.1048,1.1052,1.1055,1.1071,1.1077,1.1017,1.1017,1.1017,0,0,1.0893,1.0899,1.091,1.0928,1.0935,1.0951,1.0932,1.0951,1.0963,1.095,1.0974,1.0977,1.0987,1.1015,1.1027,1.1019,1.1072,1.1055,1.1058,1.1059,1.1074,1.108,1.1085,1.1019,1.1018,1.1018,0,0,1.0932,1.0939,1.0961,1.0968,1.0978,1.0978,1.0983,1.0991,1.0992,1.1016,1.1006,1.102,1.1046,1.1053,1.106,1.1101,1.1092,1.1105,1.1127,1.1143,1.1148,1.1152,1.1166,1.1171,1.1108,1.1109,1.1109,0,1.0953,1.0978,1.0974,1.0993,1.1001,1.0989,1.1011,1.1018,1.1032,1.1038,1.1028,1.1059,1.1065,1.1094,1.1104,1.111,1.1115,1.1104,1.1147,1.1151,1.1155,1.1168,1.1174,1.111,1.111,1.111,1.111,0,1.1001,1.1019,1.1036,1.1049,1.1059,1.108,1.1078,1.1089,1.1084,1.1085,1.1109,1.1115,1.1129,1.1136,1.1132,1.1164,1.1158,1.1148,1.1131,1.1162,1.1175,1.118,1.1112,1.1112,1.1111,1.1111,0,0,1.1056,1.1066,1.1072,1.1077,1.1087,1.11,1.112,1.1134,1.1142,1.1152,1.1168,1.1189,1.118,1.1187,1.1184,1.1197,1.1228,1.1185,1.1185,1.1193,1.1263,1.1271,1.1277,1.1223,1.1224,1.1225,1.1262,0,1.1095,1.113,1.1126,1.1158,1.1174,1.1163,1.1179,1.1187,1.1188,1.1201,1.1202,1.1217,1.1203,1.1207,1.122,1.1222,1.1243,1.1219,1.1237,1.1238,1.1235,1.1283,1.1292,1.1327,1.1267,1.1268,1.1269,0,1.1146,1.1157,1.1191,1.1197,1.1204,1.1219,1.1231,1.1244,1.1251,1.1251,1.1259,1.1253,1.1272,1.1254,1.128,1.1264,1.1271,1.1273,1.1274,1.1275,1.1255,1.1286,1.1338,1.1344,1.1276,1.1276,1.1275,0,1.1182,1.1205,1.1228,1.1233,1.1241,1.1252,1.1256,1.1262,1.1271,1.1281,1.1286,1.1298,1.1305,1.1315,1.1312,1.1299,1.1338,1.132,1.1338,1.1338,1.1346,1.1346,1.14,1.1351,1.1351,1.1351,1.1351,0,1.1226,1.1247,1.1244,1.1258,1.1281,1.1276,1.1299,1.1301,1.1307,1.1321,1.1312,1.1325,1.1321,1.1333,1.1331,1.1352,1.1356,1.1355,1.1354,1.1356,1.1356,1.1361,1.1358,1.1353,1.1352,1.1352,1.1352,0,1.127,1.1268,1.1293,1.1298,1.1299,1.1316,1.132,1.1333,1.1333,1.1351,1.1355,1.1355,1.1369,1.1367,1.1383,1.1382,1.1408,1.1404,1.1405,1.1404,1.1422,1.142,1.1481,1.1489,1.1435,1.1436,1.1436,0,1.1298,1.1314,1.132,1.1329,1.1333,1.1348,1.1356,1.1351,1.136,1.137,1.1381,1.1395,1.1406,1.1429,1.143,1.1442,1.1439,1.1459,1.144,1.1441,1.1438,1.1437,1.1438,1.1463,1.1463,1.1464,1.1464,0,1.1348,1.1347,1.1359,1.1371,1.1381,1.139,1.1398,1.1406,1.1402,1.1412,1.1427,1.1435,1.1451,1.1464,1.1476,1.1479,1.1471,1.147,1.1475,1.1477,1.1476,1.1476,1.1415,1.1469,1.1468,1.1468,1.1468,1.1468,1.1385,1.1398,1.1404,1.1418,1.1424,1.1431,1.1443,1.1444,1.1457,1.1469,1.1466,1.1482,1.1488,1.1503,1.1507,1.1519,1.1512,1.1519,1.152,1.1522,1.1524,1.1475,1.1521,1.1521,1.1521,1.1521,1.1521,0,1.1434,1.1437,1.145,1.1461,1.1472,1.1463,1.1472,1.1481,1.1496,1.1502,1.1512,1.1529,1.1541,1.1543,1.1555,1.1565,1.1561,1.1568,1.1567,1.1568,1.153,1.1525,1.157,1.157,1.157,1.157,1.157,1.157,1.1461,1.1482,1.1481,1.1505,1.1508,1.1524,1.153,1.1536,1.1541,1.156,1.157,1.1571,1.1576,1.1588,1.1599,1.1599,1.1603,1.1611,1.161,1.1575,1.157,1.1566,1.1561,1.1613,1.1613,1.1646,1.1647,1.1647]}]]